Flag Weather past 2 weeks in Sunnyvale, California, U.S.A.

Now
57 °F

Sunny.


Feels Like: 57 °F
Forecast: 49 / 70 °F
Wind: No wind

Location: Moffett Field

Current Time: Nov 27, 2014 at 10:28:26 AM

Latest Report: Nov 27, 2014 at 9:56 AM


Visibility: 7 mi

Pressure: 30.20 "Hg

Humidity: 78%

Dew point: 50 °F

Location of SunnyvaleLocation

Historic Weather in Sunnyvale — Graph

°F

Sunnyvale temperature yesterday

Maximum temperature yesterday: 69 °F (at 1:56 PM)
Minimum temperature yesterday: 45 °F (at 3:56 AM)
Average temperature yesterday: 55 °F

Past Weeks' High & Low Weather Summary

 TemperatureHumidityPressure
High69 °F (Nov 26, 1:56 PM)100% (Nov 13, 12:56 AM)30.47 "Hg (Nov 13, 12:56 AM)
Low44 °F (Nov 24, 3:56 AM)15% (Nov 16, 10:56 AM)29.96 "Hg (Nov 13, 4:56 AM)
Average57 °F71%30.18 "Hg
* Reported Nov 12 8:56 AM — Nov 27 8:56 AM, Sunnyvale, Weather by CustomWeather, © 2014

Note: Actual official high and low records may vary slightly from our data, if they occured in-between our weather recording intervals... More about our weather records

Advertising

Sunnyvale weather history for previous 24 hours

 ConditionsComfort  
Time TempWeatherWind HumidityBarometerVisibility
8:56 AM
Nov 27
54 °FSunny.No wind83%30.20 "Hg9 mi
7:56 AM48 °FSunny.No wind93%30.20 "Hg10 mi
6:56 AM46 °FClear.No wind89%30.19 "Hg10 mi
5:56 AM47 °FClear.No wind86%30.19 "Hg10 mi
4:56 AM48 °FClear.No wind89%30.18 "Hg10 mi
3:56 AM49 °FClear.No wind90%30.19 "Hg10 mi
2:56 AM49 °FClear.No wind86%30.20 "Hg10 mi
1:56 AM50 °FClear.No wind86%30.20 "Hg10 mi
12:56 AM50 °FClear.No wind86%30.21 "Hg10 mi
11:56 PM
Nov 26
50 °FClear.No wind86%30.22 "Hg10 mi
10:56 PM52 °FClear.No wind86%30.22 "Hg10 mi
9:56 PM53 °FClear.No wind80%30.22 "Hg10 mi
8:56 PM56 °FClear.No wind81%30.23 "Hg10 mi
7:56 PM57 °FClear.No wind74%30.22 "Hg10 mi
6:56 PM59 °FClear.No wind69%30.22 "Hg8 mi
5:56 PM59 °FClear.No wind67%30.22 "Hg8 mi
4:56 PM62 °FClear.No wind60%30.22 "Hg6 mi
3:56 PM64 °FSunny.5 mph58%30.21 "Hg6 mi
2:56 PM68 °FSunny.9 mph44%30.22 "Hg9 mi
1:56 PM69 °FSunny.3 mph38%30.22 "Hg10 mi
12:56 PM67 °FSunny.3 mph42%30.24 "Hg9 mi
11:56 AM64 °FSunny.3 mph50%30.26 "Hg7 mi
10:56 AM61 °FSunny.3 mph56%30.30 "Hg8 mi
Weather by CustomWeather, © 2014

See weather overviewHow to use our weather pages